Location: ??
(35.1714°N, 128.2806°E)
Time: 15:04:48
(UTC+00:00)

Cosmos 2369 - Pass Details

Date: 29 October 2020
Orbit: 841 x 854 km, 71.0° (Epoch: 01 December)

Event Time Altitude Azimuth Distance (km) Brightness Sun altitude
Exits shadow 20:38:40 10° 320° (NW) 2,434 5.7 -14.3°
Maximum altitude 20:43:41 36° 256° (WSW) 1,306 4.2 -13.3°
Drops below altitude 10° 20:48:45 10° 191° (S) 2,447 6.1 -12.3°
Sets 20:51:21 0° 183° (S) 3,378 6.9 -11.8°
